date,City,No. Stations,Air Quality,Index Value,Prominent Pollutant
2021-07-01,Gorakhpur,1.0,Satisfactory,57,PM10
2021-07-02,Gorakhpur,1.0,Good,43,PM10
2021-07-04,Gorakhpur,1.0,Good,35,O3
2021-07-05,Gorakhpur,1.0,Good,41,O3
2021-07-06,Gorakhpur,1.0,Good,50,O3
2021-07-07,Gorakhpur,1.0,Good,48,O3
2021-07-08,Gorakhpur,1.0,Good,34,PM10
2021-07-09,Gorakhpur,1.0,Good,21,PM2.5
2021-07-10,Gorakhpur,1.0,Good,23,PM2.5
2021-07-11,Gorakhpur,1.0,Good,25,PM2.5
2021-07-13,Gorakhpur,1.0,Good,22,PM10
2021-07-14,Gorakhpur,1.0,Good,22,PM10
2021-07-15,Gorakhpur,1.0,Good,26,PM10
2021-07-16,Gorakhpur,1.0,Good,30,PM10
2021-07-17,Gorakhpur,1.0,Good,31,PM10
2021-07-18,Gorakhpur,1.0,Good,18,CO
2021-07-19,Gorakhpur,1.0,Good,21,CO
2021-07-20,Gorakhpur,1.0,Good,18,CO
2021-07-21,Gorakhpur,1.0,Good,18,CO
2021-07-22,Gorakhpur,1.0,Good,19,PM2.5
2021-07-23,Gorakhpur,1.0,Good,21,PM2.5
2021-07-24,Gorakhpur,1.0,Good,12,CO
2021-07-25,Gorakhpur,1.0,Good,18,PM10
2021-07-26,Gorakhpur,1.0,Good,45,PM2.5
2021-07-27,Gorakhpur,1.0,Good,25,PM2.5
2021-07-28,Gorakhpur,1.0,Good,22,CO
2021-07-29,Gorakhpur,1.0,Good,21,CO
2021-07-30,Gorakhpur,1.0,Good,16,CO
2021-07-31,Gorakhpur,1.0,Good,12,CO
2021-08-01,Gorakhpur,1.0,Good,15,CO
2021-08-02,Gorakhpur,1.0,Good,17,CO
2021-08-03,Gorakhpur,1.0,Good,18,CO
2021-08-04,Gorakhpur,1.0,Good,21,PM10
2021-08-05,Gorakhpur,1.0,Good,19,CO
2021-08-06,Gorakhpur,1.0,Good,20,CO
2021-08-07,Gorakhpur,1.0,Good,21,O3
2021-08-08,Gorakhpur,1.0,Good,22,CO
2021-08-09,Gorakhpur,1.0,Good,19,CO
2021-08-10,Gorakhpur,1.0,Good,17,CO
2021-08-11,Gorakhpur,1.0,Good,22,CO
2021-08-12,Gorakhpur,1.0,Good,22,CO
2021-08-13,Gorakhpur,1.0,Good,19,CO
2021-08-14,Gorakhpur,1.0,Good,21,CO
2021-08-15,Gorakhpur,1.0,Good,38,PM2.5
2021-08-16,Gorakhpur,1.0,Good,29,PM2.5
2021-08-17,Gorakhpur,1.0,Good,30,PM10
2021-08-18,Gorakhpur,1.0,Good,38,PM2.5
2021-08-19,Gorakhpur,1.0,Good,17,PM10
2021-08-20,Gorakhpur,1.0,Good,21,PM2.5
2021-08-21,Gorakhpur,1.0,Good,13,CO
2021-08-22,Gorakhpur,1.0,Good,21,PM2.5
2021-08-23,Gorakhpur,1.0,Good,23,CO
2021-08-24,Gorakhpur,1.0,Good,25,CO
2021-08-25,Gorakhpur,1.0,Good,27,CO
2021-08-26,Gorakhpur,1.0,Good,20,PM10
2021-08-27,Gorakhpur,1.0,Good,32,PM10
2021-08-28,Gorakhpur,1.0,Good,27,PM10
2021-08-29,Gorakhpur,1.0,Good,16,CO
2021-08-31,Gorakhpur,1.0,Good,18,CO
2021-09-01,Gorakhpur,1.0,Good,29,PM2.5
2021-09-02,Gorakhpur,1.0,Good,39,PM10
2021-09-03,Gorakhpur,1.0,Good,17,PM2.5
2021-09-04,Gorakhpur,1.0,Good,25,CO
2021-09-05,Gorakhpur,1.0,Good,32,PM2.5
2021-09-06,Gorakhpur,1.0,Good,39,PM2.5
2021-09-07,Gorakhpur,1.0,Good,21,PM10
2021-09-08,Gorakhpur,1.0,Good,17,CO
2021-09-09,Gorakhpur,1.0,Good,26,PM10
2021-09-10,Gorakhpur,1.0,Good,25,PM10
2021-09-11,Gorakhpur,1.0,Good,25,PM10
2021-09-12,Gorakhpur,1.0,Good,26,PM10
2021-09-13,Gorakhpur,1.0,Good,19,PM10
2021-09-14,Gorakhpur,1.0,Good,21,PM10
2021-09-17,Gorakhpur,1.0,Good,17,CO
2021-09-18,Gorakhpur,1.0,Good,23,PM2.5
2021-09-19,Gorakhpur,1.0,Good,44,PM2.5
2021-09-20,Gorakhpur,1.0,Good,49,PM2.5
2021-09-21,Gorakhpur,1.0,Good,22,CO
2021-09-22,Gorakhpur,1.0,Good,22,PM10
2021-09-23,Gorakhpur,1.0,Good,33,PM10
2021-09-24,Gorakhpur,1.0,Good,29,PM10
2021-09-25,Gorakhpur,1.0,Good,30,PM10
2021-09-26,Gorakhpur,1.0,Good,29,PM10
2021-09-27,Gorakhpur,1.0,Good,50,PM10
2021-09-28,Gorakhpur,1.0,Good,22,PM10
2021-09-29,Gorakhpur,1.0,Good,19,PM10
2021-09-30,Gorakhpur,1.0,Good,19,PM10
2021-10-06,Gorakhpur,1.0,Satisfactory,67,PM2.5
2021-10-07,Gorakhpur,1.0,Satisfactory,64,PM10
2021-10-08,Gorakhpur,1.0,Moderate,107,PM10
2021-10-09,Gorakhpur,1.0,Moderate,166,PM2.5
2021-10-10,Gorakhpur,1.0,Moderate,167,PM2.5
2021-10-11,Gorakhpur,1.0,Moderate,160,PM2.5
2021-10-12,Gorakhpur,1.0,Moderate,145,PM2.5
2021-10-13,Gorakhpur,1.0,Moderate,150,PM2.5
2021-10-14,Gorakhpur,1.0,Moderate,138,PM2.5
2021-10-15,Gorakhpur,1.0,Moderate,127,PM2.5
2021-10-16,Gorakhpur,1.0,Satisfactory,82,PM2.5
2021-10-17,Gorakhpur,1.0,Satisfactory,66,PM2.5
2021-10-18,Gorakhpur,1.0,Good,21,PM10
2021-10-19,Gorakhpur,1.0,Good,17,SO2
2021-10-20,Gorakhpur,1.0,Good,31,PM2.5
2021-10-21,Gorakhpur,1.0,Moderate,144,PM2.5
2021-10-22,Gorakhpur,1.0,Moderate,194,PM2.5
2021-10-23,Gorakhpur,1.0,Moderate,193,PM2.5
2021-10-24,Gorakhpur,1.0,Moderate,196,PM2.5
2021-10-25,Gorakhpur,1.0,Moderate,195,PM2.5
2021-10-26,Gorakhpur,1.0,Moderate,135,PM2.5
2021-10-27,Gorakhpur,1.0,Moderate,127,PM10
2021-10-28,Gorakhpur,1.0,Moderate,146,PM2.5
2021-10-29,Gorakhpur,1.0,Moderate,200,PM2.5
2021-10-30,Gorakhpur,1.0,Poor,202,PM2.5
2021-10-31,Gorakhpur,1.0,Poor,244,PM2.5
2021-11-01,Gorakhpur,1.0,Poor,255,PM2.5
2021-11-02,Gorakhpur,1.0,Poor,261,PM2.5
2021-11-03,Gorakhpur,1.0,Poor,254,PM2.5
2021-11-04,Gorakhpur,1.0,Poor,298,PM2.5
2021-11-05,Gorakhpur,1.0,Very Poor,372,PM2.5
2021-11-06,Gorakhpur,1.0,Very Poor,386,PM2.5
2021-11-07,Gorakhpur,1.0,Very Poor,347,PM2.5
2021-11-08,Gorakhpur,1.0,Very Poor,345,PM2.5
2021-11-09,Gorakhpur,1.0,Very Poor,393,PM2.5
2021-11-10,Gorakhpur,1.0,Very Poor,346,PM2.5
2021-11-11,Gorakhpur,1.0,Poor,271,PM2.5
2021-11-12,Gorakhpur,1.0,Poor,260,PM2.5
2021-11-13,Gorakhpur,1.0,Poor,297,PM2.5
2021-11-14,Gorakhpur,1.0,Poor,295,PM2.5
2021-11-15,Gorakhpur,1.0,Very Poor,302,PM2.5
2021-11-17,Gorakhpur,1.0,Poor,296,PM2.5
2021-11-18,Gorakhpur,1.0,Very Poor,308,PM2.5
2021-11-19,Gorakhpur,1.0,Very Poor,309,PM2.5
2021-11-20,Gorakhpur,1.0,Poor,281,PM2.5
2021-11-21,Gorakhpur,1.0,Moderate,162,PM2.5
2021-11-22,Gorakhpur,1.0,Moderate,120,PM2.5
2021-11-23,Gorakhpur,1.0,Moderate,130,PM2.5
2021-11-24,Gorakhpur,1.0,Moderate,197,PM2.5
2021-11-25,Gorakhpur,1.0,Poor,240,PM2.5
2021-11-26,Gorakhpur,1.0,Poor,281,PM2.5
2021-11-27,Gorakhpur,1.0,Very Poor,322,PM2.5
2021-11-28,Gorakhpur,1.0,Poor,236,PM2.5
2021-11-29,Gorakhpur,1.0,Moderate,187,PM2.5
2021-11-30,Gorakhpur,1.0,Moderate,142,PM2.5
2021-12-01,Gorakhpur,1.0,Moderate,173,PM2.5
2021-12-02,Gorakhpur,1.0,Moderate,152,PM2.5
2021-12-03,Gorakhpur,1.0,Moderate,138,PM2.5
2021-12-04,Gorakhpur,1.0,Moderate,103,PM2.5
2021-12-05,Gorakhpur,1.0,Satisfactory,89,PM2.5
2021-12-06,Gorakhpur,1.0,Moderate,130,PM2.5
2021-12-07,Gorakhpur,1.0,Satisfactory,80,PM10
2021-12-08,Gorakhpur,1.0,Satisfactory,71,PM10
2021-12-09,Gorakhpur,1.0,Satisfactory,63,PM10
2021-12-10,Gorakhpur,1.0,Satisfactory,86,PM10
2021-12-11,Gorakhpur,1.0,Moderate,113,PM2.5
2021-12-12,Gorakhpur,1.0,Moderate,136,PM2.5
2021-12-13,Gorakhpur,1.0,Moderate,173,PM2.5
2021-12-14,Gorakhpur,1.0,Moderate,184,PM2.5
2021-12-15,Gorakhpur,1.0,Moderate,135,PM2.5
2021-12-16,Gorakhpur,1.0,Satisfactory,90,PM2.5
2021-12-17,Gorakhpur,1.0,Moderate,119,PM2.5
2021-12-18,Gorakhpur,1.0,Satisfactory,93,PM10
2021-12-19,Gorakhpur,1.0,Moderate,133,PM2.5
2021-12-20,Gorakhpur,1.0,Poor,251,PM2.5
2021-12-21,Gorakhpur,1.0,Poor,247,PM2.5
2021-12-22,Gorakhpur,1.0,Poor,235,PM2.5
2021-12-23,Gorakhpur,1.0,Moderate,152,PM2.5
2021-12-24,Gorakhpur,1.0,Moderate,112,PM2.5
2021-12-25,Gorakhpur,1.0,Moderate,155,PM2.5
2021-12-26,Gorakhpur,1.0,Moderate,131,PM2.5
2021-12-27,Gorakhpur,1.0,Moderate,131,PM2.5
2021-12-28,Gorakhpur,1.0,Moderate,147,PM2.5
2021-12-29,Gorakhpur,1.0,Satisfactory,56,PM2.5
2021-12-30,Gorakhpur,1.0,Good,40,PM2.5
2021-12-31,Gorakhpur,1.0,Satisfactory,65,PM2.5
2022-01-01,Gorakhpur,1.0,Moderate,107,PM2.5
2022-01-02,Gorakhpur,1.0,Moderate,157,PM2.5
2022-01-03,Gorakhpur,1.0,Poor,202,PM2.5
2022-01-04,Gorakhpur,1.0,Moderate,184,PM2.5
2022-01-05,Gorakhpur,1.0,Poor,252,PM2.5
2022-01-06,Gorakhpur,1.0,Poor,209,PM2.5
2022-01-07,Gorakhpur,1.0,Moderate,142,PM2.5
2022-01-08,Gorakhpur,1.0,Satisfactory,83,PM2.5
2022-01-09,Gorakhpur,1.0,Satisfactory,80,PM2.5
2022-01-10,Gorakhpur,1.0,Satisfactory,77,PM2.5
2022-01-11,Gorakhpur,1.0,Satisfactory,73,PM10
2022-01-12,Gorakhpur,1.0,Satisfactory,66,PM2.5
2022-01-13,Gorakhpur,1.0,Good,38,PM10
2022-01-14,Gorakhpur,1.0,Satisfactory,78,PM2.5
2022-01-15,Gorakhpur,1.0,Satisfactory,85,PM2.5
2022-01-16,Gorakhpur,1.0,Satisfactory,93,PM2.5
2022-01-17,Gorakhpur,1.0,Moderate,116,PM2.5
2022-01-18,Gorakhpur,1.0,Moderate,124,PM2.5
2022-01-19,Gorakhpur,1.0,Moderate,157,PM2.5
2022-01-20,Gorakhpur,1.0,Moderate,143,PM2.5
2022-01-21,Gorakhpur,1.0,Moderate,113,PM10
2022-01-22,Gorakhpur,1.0,Poor,212,PM2.5
2022-01-23,Gorakhpur,1.0,Moderate,155,PM2.5
2022-01-24,Gorakhpur,1.0,Moderate,147,PM2.5
2022-01-26,Gorakhpur,1.0,Satisfactory,94,PM10
2022-01-27,Gorakhpur,1.0,Satisfactory,98,PM2.5
2022-01-28,Gorakhpur,1.0,Satisfactory,98,PM10
2022-01-29,Gorakhpur,1.0,Moderate,102,PM2.5
2022-01-30,Gorakhpur,1.0,Poor,202,PM2.5
2022-01-31,Gorakhpur,1.0,Moderate,117,PM2.5
2022-02-02,Gorakhpur,1.0,Moderate,102,PM10
2022-02-03,Gorakhpur,1.0,Moderate,121,PM2.5
2022-02-04,Gorakhpur,1.0,Good,34,PM10
2022-02-05,Gorakhpur,1.0,Good,33,SO2
2022-02-06,Gorakhpur,1.0,Satisfactory,56,PM2.5
2022-02-07,Gorakhpur,1.0,Satisfactory,77,PM2.5
2022-02-08,Gorakhpur,1.0,Satisfactory,86,PM2.5
2022-02-09,Gorakhpur,1.0,Moderate,108,PM2.5
2022-02-10,Gorakhpur,1.0,Satisfactory,85,PM2.5
2022-02-11,Gorakhpur,1.0,Satisfactory,65,O3
2022-02-12,Gorakhpur,1.0,Satisfactory,80,PM10
2022-02-13,Gorakhpur,1.0,Satisfactory,86,PM10
2022-02-14,Gorakhpur,1.0,Satisfactory,84,PM2.5
2022-02-15,Gorakhpur,1.0,Satisfactory,81,PM2.5
2022-02-16,Gorakhpur,1.0,Moderate,106,PM2.5
2022-02-17,Gorakhpur,1.0,Satisfactory,97,PM10
2022-02-18,Gorakhpur,1.0,Satisfactory,78,PM10
2022-02-19,Gorakhpur,1.0,Satisfactory,87,PM10
2022-02-20,Gorakhpur,1.0,Satisfactory,63,PM10
2022-02-21,Gorakhpur,1.0,Satisfactory,89,O3
2022-02-22,Gorakhpur,1.0,Moderate,101,PM2.5
2022-02-23,Gorakhpur,1.0,Satisfactory,72,PM2.5
2022-02-25,Gorakhpur,1.0,Satisfactory,70,PM2.5
2022-02-26,Gorakhpur,1.0,Good,46,PM10
2022-02-27,Gorakhpur,1.0,Satisfactory,64,PM2.5
2022-02-28,Gorakhpur,1.0,Satisfactory,62,O3
2022-03-02,Gorakhpur,1.0,Satisfactory,75,PM10
2022-03-03,Gorakhpur,1.0,Satisfactory,74,PM10
2022-03-04,Gorakhpur,1.0,Satisfactory,68,PM10
2022-03-05,Gorakhpur,1.0,Satisfactory,64,PM10
2022-03-06,Gorakhpur,1.0,Satisfactory,64,PM10
2022-03-07,Gorakhpur,1.0,Satisfactory,80,PM10
2022-03-08,Gorakhpur,1.0,Satisfactory,72,PM10
2022-03-09,Gorakhpur,1.0,Satisfactory,81,PM10
2022-03-10,Gorakhpur,1.0,Satisfactory,87,PM10
2022-03-11,Gorakhpur,1.0,Satisfactory,84,PM10
2022-03-12,Gorakhpur,1.0,Satisfactory,76,PM10
2022-03-13,Gorakhpur,1.0,Satisfactory,78,PM10
2022-03-14,Gorakhpur,1.0,Satisfactory,84,PM10
2022-03-15,Gorakhpur,1.0,Satisfactory,94,PM2.5
2022-03-16,Gorakhpur,1.0,Satisfactory,91,PM2.5
2022-03-17,Gorakhpur,1.0,Satisfactory,81,PM2.5
2022-03-18,Gorakhpur,1.0,Satisfactory,79,PM2.5
2022-03-19,Gorakhpur,1.0,Satisfactory,88,PM2.5
2022-03-20,Gorakhpur,1.0,Satisfactory,72,PM2.5
2022-03-21,Gorakhpur,1.0,Satisfactory,92,PM2.5
2022-03-22,Gorakhpur,1.0,Satisfactory,95,PM2.5
2022-03-23,Gorakhpur,1.0,Satisfactory,78,PM10
2022-03-24,Gorakhpur,1.0,Satisfactory,89,PM10
2022-03-25,Gorakhpur,1.0,Satisfactory,81,PM10
2022-03-26,Gorakhpur,1.0,Moderate,107,PM10
2022-03-27,Gorakhpur,1.0,Satisfactory,89,PM10
2022-03-28,Gorakhpur,1.0,Satisfactory,97,PM2.5
2022-03-29,Gorakhpur,1.0,Satisfactory,96,PM2.5
2022-03-30,Gorakhpur,1.0,Satisfactory,68,PM2.5
2022-03-31,Gorakhpur,1.0,Satisfactory,65,PM2.5
2022-04-01,Gorakhpur,1.0,Satisfactory,79,PM2.5
2022-04-02,Gorakhpur,1.0,Satisfactory,80,PM2.5
2022-04-03,Gorakhpur,1.0,Satisfactory,61,PM2.5
2022-04-04,Gorakhpur,1.0,Satisfactory,92,PM10
2022-04-05,Gorakhpur,1.0,Satisfactory,85,PM10
2022-04-06,Gorakhpur,1.0,Satisfactory,84,PM10
2022-04-07,Gorakhpur,1.0,Satisfactory,61,PM10
2022-04-08,Gorakhpur,1.0,Satisfactory,58,PM10
2022-04-09,Gorakhpur,1.0,Satisfactory,59,PM2.5
2022-04-10,Gorakhpur,1.0,Good,46,PM10
2022-04-11,Gorakhpur,1.0,Good,41,PM10
2022-04-12,Gorakhpur,1.0,Good,43,PM10
2022-04-13,Gorakhpur,1.0,Satisfactory,54,PM2.5
2022-04-14,Gorakhpur,1.0,Satisfactory,63,PM10
2022-04-15,Gorakhpur,1.0,Satisfactory,83,PM10
2022-04-16,Gorakhpur,1.0,Satisfactory,89,PM10
2022-04-17,Gorakhpur,1.0,Satisfactory,63,PM10
2022-04-18,Gorakhpur,1.0,Satisfactory,85,PM10
2022-04-19,Gorakhpur,1.0,Satisfactory,56,PM10
2022-04-20,Gorakhpur,1.0,Good,45,PM10
2022-04-21,Gorakhpur,1.0,Good,41,O3
2022-04-22,Gorakhpur,1.0,Good,48,PM10
2022-04-23,Gorakhpur,1.0,Satisfactory,81,PM10
2022-04-24,Gorakhpur,1.0,Moderate,114,PM10
2022-04-26,Gorakhpur,1.0,Satisfactory,94,PM10
2022-04-27,Gorakhpur,1.0,Satisfactory,83,PM10
2022-04-28,Gorakhpur,1.0,Satisfactory,68,PM10
2022-04-29,Gorakhpur,1.0,Satisfactory,51,PM10
2022-04-30,Gorakhpur,1.0,Good,49,O3
2022-05-01,Gorakhpur,1.0,Good,45,O3
2022-05-02,Gorakhpur,1.0,Satisfactory,59,O3
2022-05-03,Gorakhpur,1.0,Good,39,O3
2022-05-04,Gorakhpur,1.0,Good,42,O3
2022-05-05,Gorakhpur,1.0,Good,38,PM10
2022-05-06,Gorakhpur,1.0,Good,42,O3
2022-05-07,Gorakhpur,1.0,Good,45,O3
2022-05-08,Gorakhpur,1.0,Good,39,SO2
2022-05-09,Gorakhpur,1.0,Good,47,PM2.5
2022-05-10,Gorakhpur,1.0,Good,40,SO2
2022-05-11,Gorakhpur,1.0,Good,41,SO2
2022-05-12,Gorakhpur,1.0,Good,42,SO2
2022-05-13,Gorakhpur,1.0,Satisfactory,54,O3
2022-05-14,Gorakhpur,1.0,Satisfactory,54,O3
2022-05-15,Gorakhpur,1.0,Good,46,O3
2022-05-16,Gorakhpur,1.0,Satisfactory,57,O3
2022-05-17,Gorakhpur,1.0,Satisfactory,52,O3
2022-05-18,Gorakhpur,1.0,Good,50,O3
2022-05-19,Gorakhpur,1.0,Satisfactory,57,O3
2022-05-20,Gorakhpur,1.0,Satisfactory,54,O3
2022-05-21,Gorakhpur,1.0,Good,50,O3
2022-05-22,Gorakhpur,1.0,Good,47,O3
2022-05-23,Gorakhpur,1.0,Satisfactory,61,O3
2022-05-24,Gorakhpur,1.0,Good,44,O3
2022-05-25,Gorakhpur,1.0,Good,48,O3
2022-05-26,Gorakhpur,1.0,Satisfactory,52,O3
2022-05-27,Gorakhpur,1.0,Satisfactory,66,O3
2022-05-28,Gorakhpur,1.0,Satisfactory,65,O3
2022-05-29,Gorakhpur,1.0,Good,44,O3
2022-05-30,Gorakhpur,1.0,Good,47,O3
2022-05-31,Gorakhpur,1.0,Satisfactory,54,O3
2022-06-01,Gorakhpur,1.0,Satisfactory,60,PM10
2022-06-02,Gorakhpur,1.0,Satisfactory,52,O3
2022-06-03,Gorakhpur,1.0,Satisfactory,57,O3
2022-06-04,Gorakhpur,1.0,Satisfactory,62,O3
2022-06-05,Gorakhpur,1.0,Good,48,O3
2022-06-06,Gorakhpur,1.0,Good,46,O3
2022-06-07,Gorakhpur,1.0,Good,44,SO2
2022-06-08,Gorakhpur,1.0,Good,47,O3
2022-06-12,Gorakhpur,1.0,Satisfactory,55,PM10
2022-06-13,Gorakhpur,1.0,Satisfactory,52,O3
2022-06-14,Gorakhpur,1.0,Good,49,O3
2022-06-15,Gorakhpur,1.0,Satisfactory,58,O3
2022-06-16,Gorakhpur,1.0,Good,46,SO2
2022-06-17,Gorakhpur,1.0,Good,46,SO2
2022-06-18,Gorakhpur,1.0,Good,50,O3
2022-06-19,Gorakhpur,1.0,Good,45,SO2
2022-06-20,Gorakhpur,1.0,Good,45,SO2
2022-06-21,Gorakhpur,1.0,Good,45,SO2
2022-06-22,Gorakhpur,1.0,Good,44,O3
2022-06-23,Gorakhpur,1.0,Good,50,O3
2022-06-24,Gorakhpur,1.0,Good,45,SO2
2022-06-25,Gorakhpur,1.0,Good,45,SO2
2022-06-26,Gorakhpur,1.0,Good,45,SO2
2022-06-27,Gorakhpur,1.0,Good,45,SO2
2022-06-28,Gorakhpur,1.0,Good,46,SO2
2022-06-29,Gorakhpur,1.0,Good,45,SO2
2022-06-30,Gorakhpur,1.0,Good,46,SO2
2022-07-01,Gorakhpur,1.0,Good,46,SO2
2022-07-02,Gorakhpur,1.0,Good,46,SO2
2022-07-03,Gorakhpur,1.0,Good,47,SO2
2022-07-04,Gorakhpur,1.0,Good,46,SO2
2022-07-05,Gorakhpur,1.0,Good,45,SO2
2022-07-06,Gorakhpur,1.0,Good,48,SO2
2022-07-07,Gorakhpur,1.0,Good,47,SO2
2022-07-08,Gorakhpur,1.0,Good,48,SO2
2022-07-09,Gorakhpur,1.0,Good,47,SO2
2022-07-12,Gorakhpur,1.0,Good,47,SO2
2022-07-13,Gorakhpur,1.0,Good,47,SO2
2022-07-14,Gorakhpur,1.0,Good,47,SO2
2022-07-15,Gorakhpur,1.0,Good,47,SO2
2022-07-16,Gorakhpur,1.0,Good,47,SO2
2022-07-17,Gorakhpur,1.0,Good,47,SO2
2022-07-18,Gorakhpur,1.0,Good,48,SO2
2022-07-19,Gorakhpur,1.0,Good,47,SO2
2022-07-20,Gorakhpur,1.0,Good,44,SO2
2022-07-21,Gorakhpur,1.0,Good,44,SO2
2022-07-22,Gorakhpur,1.0,Good,45,SO2
2022-07-23,Gorakhpur,1.0,Good,45,SO2
2022-07-26,Gorakhpur,1.0,Good,45,SO2
2022-07-27,Gorakhpur,1.0,Good,46,SO2
2022-07-28,Gorakhpur,1.0,Good,46,SO2
2022-07-29,Gorakhpur,1.0,Good,47,SO2
2022-07-30,Gorakhpur,1.0,Good,46,SO2
2022-07-31,Gorakhpur,1.0,Good,45,SO2
2022-08-01,Gorakhpur,1.0,Good,45,SO2
2022-08-02,Gorakhpur,1.0,Good,45,SO2
2022-08-03,Gorakhpur,1.0,Good,46,SO2
2022-08-04,Gorakhpur,1.0,Good,46,SO2
2022-08-05,Gorakhpur,1.0,Satisfactory,60,PM2.5
2022-08-06,Gorakhpur,1.0,Good,45,PM2.5
2022-08-07,Gorakhpur,1.0,Good,40,PM2.5
2022-08-08,Gorakhpur,1.0,Good,40,PM2.5
2022-08-10,Gorakhpur,1.0,Good,45,SO2
2022-08-11,Gorakhpur,1.0,Good,44,SO2
2022-08-12,Gorakhpur,1.0,Good,45,SO2
2022-08-13,Gorakhpur,1.0,Good,45,SO2
2022-08-14,Gorakhpur,1.0,Good,44,SO2
2022-08-15,Gorakhpur,1.0,Good,45,SO2
2022-08-16,Gorakhpur,1.0,Good,45,SO2
2022-08-17,Gorakhpur,1.0,Satisfactory,52,PM2.5
2022-08-18,Gorakhpur,1.0,Good,48,SO2
2022-08-19,Gorakhpur,1.0,Good,47,SO2
2022-08-20,Gorakhpur,1.0,Good,47,SO2
2022-08-21,Gorakhpur,1.0,Good,47,SO2
2022-08-22,Gorakhpur,1.0,Satisfactory,52,PM2.5
2022-08-23,Gorakhpur,1.0,Satisfactory,65,PM2.5
2022-08-24,Gorakhpur,1.0,Good,44,SO2
2022-08-25,Gorakhpur,1.0,Good,49,PM2.5
2022-08-26,Gorakhpur,1.0,Satisfactory,56,PM2.5
2022-08-27,Gorakhpur,1.0,Satisfactory,58,PM2.5
2022-08-28,Gorakhpur,1.0,Good,45,SO2
2022-08-29,Gorakhpur,1.0,Good,45,SO2
2022-08-30,Gorakhpur,1.0,Good,45,SO2
2022-09-01,Gorakhpur,1.0,Good,46,SO2
2022-09-02,Gorakhpur,1.0,Good,46,SO2
2022-09-03,Gorakhpur,1.0,Satisfactory,59,PM2.5
2022-09-04,Gorakhpur,1.0,Good,46,SO2
2022-09-05,Gorakhpur,1.0,Good,46,SO2
2022-09-06,Gorakhpur,1.0,Satisfactory,58,PM2.5
2022-09-07,Gorakhpur,1.0,Good,50,PM2.5
2022-09-08,Gorakhpur,1.0,Good,50,PM2.5
2022-09-09,Gorakhpur,1.0,Good,46,SO2
2022-09-10,Gorakhpur,1.0,Good,46,SO2
2022-09-11,Gorakhpur,1.0,Good,47,SO2
2022-09-12,Gorakhpur,1.0,Good,46,SO2
2022-09-13,Gorakhpur,1.0,Good,47,SO2
2022-09-14,Gorakhpur,1.0,Good,47,SO2
2022-09-16,Gorakhpur,1.0,Good,48,SO2
2022-09-17,Gorakhpur,1.0,Good,50,SO2
2022-09-18,Gorakhpur,1.0,Good,50,SO2
2022-09-19,Gorakhpur,1.0,Good,50,SO2
2022-09-20,Gorakhpur,1.0,Satisfactory,51,SO2
2022-09-21,Gorakhpur,1.0,Satisfactory,51,SO2
2022-09-22,Gorakhpur,1.0,Satisfactory,52,SO2
2022-09-23,Gorakhpur,1.0,Satisfactory,57,PM2.5
2022-09-24,Gorakhpur,1.0,Satisfactory,52,PM2.5
2022-09-25,Gorakhpur,1.0,Satisfactory,51,SO2
2022-09-26,Gorakhpur,1.0,Good,50,SO2
2022-09-27,Gorakhpur,1.0,Satisfactory,58,PM2.5
2022-09-28,Gorakhpur,1.0,Satisfactory,63,PM2.5
2022-09-29,Gorakhpur,1.0,Satisfactory,71,PM2.5
2022-09-30,Gorakhpur,1.0,Moderate,103,PM2.5
2022-10-01,Gorakhpur,1.0,Satisfactory,82,PM2.5
2022-10-02,Gorakhpur,1.0,Satisfactory,99,PM2.5
2022-10-03,Gorakhpur,1.0,Moderate,115,PM2.5
2022-10-04,Gorakhpur,1.0,Good,48,SO2
2022-10-05,Gorakhpur,1.0,Good,49,SO2
2022-10-06,Gorakhpur,1.0,Good,48,SO2
2022-10-07,Gorakhpur,1.0,Good,49,SO2
2022-10-08,Gorakhpur,1.0,Good,50,SO2
2022-10-09,Gorakhpur,1.0,Satisfactory,51,SO2
2022-10-10,Gorakhpur,1.0,Good,50,SO2
2022-10-11,Gorakhpur,1.0,Satisfactory,51,SO2
2022-10-12,Gorakhpur,1.0,Good,50,SO2
2022-10-13,Gorakhpur,1.0,Good,50,SO2
2022-10-14,Gorakhpur,1.0,Satisfactory,65,PM2.5
2022-10-15,Gorakhpur,1.0,Satisfactory,88,PM2.5
2022-10-16,Gorakhpur,1.0,Satisfactory,90,PM2.5
2022-10-17,Gorakhpur,1.0,Satisfactory,100,PM2.5
2022-10-18,Gorakhpur,1.0,Moderate,130,PM2.5
2022-10-19,Gorakhpur,1.0,Moderate,184,PM2.5
2022-10-20,Gorakhpur,1.0,Poor,240,PM2.5
2022-10-21,Gorakhpur,1.0,Poor,205,PM2.5
2022-10-22,Gorakhpur,1.0,Moderate,128,PM2.5
2022-10-23,Gorakhpur,1.0,Satisfactory,85,PM2.5
2022-10-24,Gorakhpur,1.0,Satisfactory,86,PM2.5
2022-10-25,Gorakhpur,1.0,Poor,213,PM2.5
2022-10-26,Gorakhpur,1.0,Poor,250,PM2.5
2022-10-27,Gorakhpur,1.0,Moderate,125,PM10
2022-10-28,Gorakhpur,1.0,Moderate,135,PM2.5
2022-10-29,Gorakhpur,1.0,Moderate,126,PM2.5
2022-10-30,Gorakhpur,1.0,Moderate,168,PM2.5
2022-10-31,Gorakhpur,1.0,Moderate,118,PM2.5
2022-11-01,Gorakhpur,1.0,Moderate,139,PM2.5
2022-11-02,Gorakhpur,1.0,Moderate,193,PM2.5
2022-11-03,Gorakhpur,1.0,Moderate,175,PM2.5
2022-11-04,Gorakhpur,1.0,Moderate,181,PM2.5
2022-11-05,Gorakhpur,1.0,Moderate,128,PM2.5
2022-11-06,Gorakhpur,1.0,Satisfactory,99,PM2.5
2022-11-07,Gorakhpur,1.0,Poor,217,PM2.5
2022-11-08,Gorakhpur,1.0,Moderate,184,PM2.5
2022-11-09,Gorakhpur,1.0,Poor,221,PM2.5
2022-11-10,Gorakhpur,1.0,Moderate,188,PM2.5
2022-11-11,Gorakhpur,1.0,Moderate,135,PM10
2022-11-12,Gorakhpur,1.0,Moderate,156,PM10
2022-11-13,Gorakhpur,1.0,Moderate,130,PM10
2022-11-14,Gorakhpur,1.0,Moderate,116,PM10
2022-11-15,Gorakhpur,1.0,Moderate,117,PM10
2022-11-16,Gorakhpur,1.0,Moderate,122,PM10
2022-11-17,Gorakhpur,1.0,Moderate,124,PM10
2022-11-18,Gorakhpur,1.0,Moderate,112,PM10
2022-11-21,Gorakhpur,1.0,Moderate,115,PM10
2022-11-22,Gorakhpur,1.0,Moderate,118,PM10
2022-11-23,Gorakhpur,1.0,Moderate,123,PM10
2022-11-24,Gorakhpur,1.0,Moderate,123,PM10
2022-11-25,Gorakhpur,1.0,Moderate,130,PM10
2022-11-26,Gorakhpur,1.0,Moderate,129,PM10
2022-11-27,Gorakhpur,1.0,Moderate,116,PM10
2022-11-28,Gorakhpur,1.0,Moderate,123,PM10
2022-11-29,Gorakhpur,1.0,Moderate,136,PM2.5
2022-11-30,Gorakhpur,1.0,Moderate,122,PM10
2022-12-01,Gorakhpur,1.0,Satisfactory,93,PM10
2022-12-02,Gorakhpur,1.0,Moderate,106,PM10
2022-12-03,Gorakhpur,1.0,Moderate,116,PM10
2022-12-04,Gorakhpur,1.0,Moderate,116,PM10
2022-12-05,Gorakhpur,1.0,Moderate,115,PM10
2022-12-06,Gorakhpur,1.0,Moderate,135,PM10
2022-12-07,Gorakhpur,1.0,Moderate,120,PM10
2022-12-08,Gorakhpur,1.0,Moderate,126,PM10
2022-12-09,Gorakhpur,1.0,Moderate,134,PM2.5
2022-12-10,Gorakhpur,1.0,Moderate,109,PM10
2022-12-11,Gorakhpur,1.0,Moderate,114,PM10
2022-12-12,Gorakhpur,1.0,Moderate,165,PM2.5
2022-12-13,Gorakhpur,1.0,Moderate,111,PM2.5
2022-12-14,Gorakhpur,1.0,Moderate,111,PM10
2022-12-15,Gorakhpur,1.0,Moderate,116,PM10
2022-12-16,Gorakhpur,1.0,Satisfactory,98,PM10
2022-12-18,Gorakhpur,1.0,Moderate,184,PM2.5
2022-12-19,Gorakhpur,1.0,Moderate,182,PM2.5
2022-12-20,Gorakhpur,1.0,Poor,204,PM2.5
2022-12-21,Gorakhpur,1.0,Moderate,141,PM2.5
2022-12-23,Gorakhpur,1.0,Satisfactory,96,PM10
2022-12-24,Gorakhpur,1.0,Moderate,125,PM2.5
2022-12-25,Gorakhpur,1.0,Moderate,106,PM2.5
2022-12-26,Gorakhpur,1.0,Moderate,114,PM10
2022-12-27,Gorakhpur,1.0,Moderate,118,PM10
2022-12-28,Gorakhpur,1.0,Moderate,128,PM10
2022-12-29,Gorakhpur,1.0,Moderate,160,PM2.5
2022-12-30,Gorakhpur,1.0,Moderate,175,PM2.5
2022-12-31,Gorakhpur,1.0,Poor,250,PM2.5
2023-01-01,Gorakhpur,1.0,Poor,201,PM2.5
2023-01-02,Gorakhpur,1.0,Moderate,107,PM10
2023-01-03,Gorakhpur,1.0,Moderate,106,PM10
2023-01-05,Gorakhpur,1.0,Moderate,109,PM10
2023-01-06,Gorakhpur,1.0,Moderate,112,PM10
2023-01-07,Gorakhpur,1.0,Moderate,144,PM2.5
2023-01-08,Gorakhpur,1.0,Moderate,132,PM10
2023-01-09,Gorakhpur,1.0,Moderate,131,PM10
2023-01-10,Gorakhpur,1.0,Moderate,128,PM2.5
2023-01-11,Gorakhpur,1.0,Moderate,129,PM2.5
2023-01-12,Gorakhpur,1.0,Moderate,173,PM2.5
2023-01-13,Gorakhpur,1.0,Moderate,135,PM2.5
2023-01-14,Gorakhpur,1.0,Poor,230,PM2.5
2023-01-15,Gorakhpur,1.0,Moderate,137,PM10
2023-01-16,Gorakhpur,1.0,Moderate,129,PM10
2023-01-17,Gorakhpur,1.0,Moderate,133,PM10
2023-01-18,Gorakhpur,1.0,Moderate,150,PM2.5
2023-01-19,Gorakhpur,1.0,Moderate,158,PM2.5
2023-01-20,Gorakhpur,1.0,Moderate,124,PM10
2023-01-21,Gorakhpur,1.0,Moderate,117,PM10
2023-01-22,Gorakhpur,1.0,Moderate,123,PM10
2023-01-23,Gorakhpur,1.0,Moderate,116,PM10
2023-01-24,Gorakhpur,1.0,Satisfactory,99,PM10
2023-01-25,Gorakhpur,1.0,Moderate,118,PM10
2023-01-26,Gorakhpur,1.0,Moderate,115,PM10
2023-01-27,Gorakhpur,1.0,Satisfactory,85,PM10
2023-01-28,Gorakhpur,1.0,Moderate,110,PM10
2023-01-29,Gorakhpur,1.0,Moderate,109,PM10
2023-01-30,Gorakhpur,1.0,Moderate,114,PM10
2023-01-31,Gorakhpur,1.0,Satisfactory,97,PM10
2023-02-01,Gorakhpur,1.0,Satisfactory,77,PM10
2023-02-02,Gorakhpur,1.0,Satisfactory,87,PM10
2023-02-03,Gorakhpur,1.0,Moderate,113,PM10
2023-02-04,Gorakhpur,1.0,Moderate,114,PM10
2023-02-05,Gorakhpur,1.0,Moderate,111,PM10
2023-02-06,Gorakhpur,1.0,Moderate,114,PM10
2023-02-07,Gorakhpur,1.0,Moderate,112,PM10
2023-02-08,Gorakhpur,1.0,Moderate,121,PM10
2023-02-09,Gorakhpur,1.0,Satisfactory,100,PM10
2023-02-10,Gorakhpur,1.0,Satisfactory,95,PM10
2023-02-11,Gorakhpur,1.0,Satisfactory,94,PM10
2023-02-12,Gorakhpur,1.0,Moderate,125,PM10
2023-02-13,Gorakhpur,1.0,Moderate,108,PM10
2023-02-14,Gorakhpur,1.0,Satisfactory,100,PM10
2023-02-15,Gorakhpur,1.0,Moderate,118,PM10
2023-02-16,Gorakhpur,1.0,Moderate,120,PM10
2023-02-17,Gorakhpur,1.0,Moderate,104,PM10
2023-02-19,Gorakhpur,1.0,Moderate,111,PM10
2023-02-20,Gorakhpur,1.0,Moderate,125,PM10
2023-02-21,Gorakhpur,1.0,Moderate,107,PM10
2023-02-22,Gorakhpur,1.0,Moderate,115,PM10
2023-02-23,Gorakhpur,1.0,Satisfactory,96,PM10
2023-02-24,Gorakhpur,1.0,Moderate,103,PM10
2023-02-25,Gorakhpur,1.0,Moderate,111,PM10
2023-02-26,Gorakhpur,1.0,Moderate,109,PM10